Regional Weather Roundup
Issued by NWS

Home | Current Version | Previous Version | Text Only | Print | Product List | Glossary On
Versions: 1 2 3 4 5 6 7 8 9 10 11 12 13 14 15 16 17 18 19 20 21 22 23 24 25 26 27 28 29 30 31 32 33 34 35 36 37 38 39 40 41 42 43 44 45 46 47 48 49 50
000
ASUS43 KMPX 220601
RWRMN
WEATHER ROUNDUP FOR MINNESOTA
NATIONAL WEATHER SERVICE TWIN CITIES/CHANHASSEN MN
100 AM CDT TUE AUG 22 2017


NOTE: "FAIR" INDICATES FEW OR NO CLOUDS BELOW 12,000 FEET WITH NO
SIGNIFICANT WEATHER AND/OR OBSTRUCTIONS TO VISIBILITY. N/A MEANS
CURRENT SKY AND/OR WEATHER CONDITIONS ARE NOT AVAILABLE.

MNZ060>063-068>070-220700-
   Twin Cities Metro

CITY           SKY/WX    TMP DP  RH WIND       PRES   REMARKS
TWIN CITIES    CLOUDY    67  62  84 W9        29.86F
6HR MIN TEMP:  67; 6HR MAX TEMP:  71;

ST PAUL        CLOUDY    68  64  87 W13       29.86S
CRYSTAL        CLOUDY    66  60  81 W9        29.85S
BLAINE         CLOUDY    66  64  94 W9        29.86S
LAKEVILLE      CLOUDY    64  64 100 W6        29.88S
EDEN PRAIRIE   CLOUDY    67  62  84 W9        29.87S
6HR MIN TEMP:  67; 6HR MAX TEMP:  71;

SOUTH ST PAUL  CLOUDY    67  64  90 W8        29.86S
LAKE ELMO      FAIR      66  63  88 W7        29.87S
$$
MNZ001>005-007-008-013>017-022>024-027-028-220700-
   Northwest Minnesota

CITY           SKY/WX    TMP DP  RH WIND       PRES   REMARKS
BEMIDJI        CLEAR     54  52  94 W8        29.95R
HALLOCK        CLEAR     48  46  93 W6        29.97S
ROSEAU         CLEAR     54  48  82 W8        29.94F
WARROAD        CLEAR     52  46  82 W3        29.94S
CROOKSTON      CLEAR     48  48 100 CALM      30.00S
FOSSTON        CLEAR     52  50  93 W6        29.98S
DETROIT LAKES  CLEAR     54  52  94 NW8       30.00R
MOORHEAD       CLEAR     54  52  94 NW7       30.01R
PARK RAPIDS    CLEAR     55  52  89 NW8       29.95R
MAHNOMEN       FAIR      55  53  91 N9        29.98S
$$
MNZ006-009>011-018-025>026-220700-
   North Central Minnesota

CITY           SKY/WX    TMP DP  RH WIND       PRES   REMARKS
BAUDETTE       CLEAR     52  51  97 W7        29.91S
FLAG ISLAND    CLEAR     57  52  82 NW7       29.91S
INTL FALLS     CLEAR     52  51  97 NW7       29.89R
6HR MIN TEMP:  50; 6HR MAX TEMP:  57; 6HR PCP:  0.06;

WASKISH        CLEAR     57  55  94 NW10      29.93S
BIG FORK       MOCLDY    52  52 100 CALM      29.90S FOG
LONGVILLE      MOCLDY    57  55  94 CALM      29.91R
GRAND RAPIDS   PTCLDY    54  52  93 CALM      29.91S
CRANE LAKE     CLOUDY    52  52 100 CALM      29.88S
ORR            CLOUDY    55  52  88 CALM      29.85S
COOK           CLOUDY    54  54 100 CALM      29.88S
WALKER         FAIR      55  53  92 NW9       29.93S
$$
MNZ012-019>021-037-220700-
   Northeast Minnesota

CITY           SKY/WX    TMP DP  RH WIND       PRES   REMARKS
DULUTH         CLOUDY    56  56 100 N3        29.84F
6HR MIN TEMP:  56; 6HR MAX TEMP:  63; 6HR PCP:  1.04;

ELY            PTCLDY    54  52  94 CALM      29.85F
HIBBING        PTCLDY    52  52 100 NW5       29.87S
EVELETH        MOCLDY    58  53  85 NW5       29.88S
DULUTH HARBOR  CLOUDY    57  57 100 N6        29.84S
TWO HARBORS    CLOUDY    59  54  82 CALM      29.82S
SILVER BAY     PTCLDY    55  55 100 CALM      29.81F
GRAND MARAIS     N/A     58  57  97 CALM      29.80F
G MARAIS ARPRT CLOUDY    54  48  82 N6        29.83F
$$
MNZ029>031-032-039>041-046>048-054>057-064-220700-
   West Central Minnesota

CITY           SKY/WX    TMP DP  RH WIND       PRES   REMARKS
FERGUS FALLS   CLEAR     57  54  88 N5        30.00R
WHEATON        CLEAR     59  52  77 NW8       30.03S
MORRIS         CLEAR     61  55  82 NW13      29.98R
ALEXANDRIA     CLEAR     62  56  80 NW14G22   29.97R
ELBOW LAKE     FAIR      60  55  84 NW10G16   29.99S
WADENA         CLEAR     57  54  88 NW8       29.95R
GLENWOOD       CLEAR     61  57  88 NW14      29.96S
APPLETON       CLEAR     63  55  77 NW12      29.99R
BENSON         CLEAR     61  55  82 N14       29.99R
ORTONVILLE     CLEAR     61  54  77 MISG      30.01R
MADISON        CLEAR     63  63 100 NW9       30.01R
WILLMAR        FAIR      63  59  88 NW9       29.96R
$$
MNZ033>034-036-042>043-049>051-058-059-220700-
   Central Minnesota

CITY           SKY/WX    TMP DP  RH WIND       PRES   REMARKS
ST CLOUD       CLEAR     63  61  93 NW12      29.89R
6HR MIN TEMP:  63; 6HR MAX TEMP:  69;

SAUK CENTRE    FAIR      61  58  89 NW9       29.94R
PAYNESVILLE    CLEAR     61  59  92 NW6       29.94R
AITKIN         CLEAR     57  55  94 W3        29.88S
PINE RIVER     CLEAR     57  54  88 NW6       29.95R
BRAINERD       CLEAR     60  59  96 W5        29.90S
STAPLES        CLEAR     57  55  94 NW9       29.93R
LONG PRAIRIE   MOCLDY    61  57  88 W9        29.94S
LITTLE FALLS   CLEAR     61  57  88 NW6       29.91S
LITCHFIELD     CLEAR     64  61  88 NW12      29.93R
BUFFALO        CLEAR     65  59  78 NW12      29.89S
MAPLE LAKE     CLEAR     65  61  86 W9G17     29.90R
HUTCHINSON     CLEAR     64  62  91 W9        29.93R
$$
MNZ037-044-045-052-053-220700-
   East Central Minnesota

CITY           SKY/WX    TMP DP  RH WIND       PRES   REMARKS
PRINCETON      CLEAR     64  63  94 W9        29.88R
MORA           PTCLDY    63  59  88 NW8       29.88R
CAMBRIDGE      MOCLDY    66  63  88 NW8       29.86S
RUSH CITY      CLOUDY    64  61  91 NW3       29.85S
MOOSE LAKE     CLOUDY    59  57  94 CALM      29.84R
HINCKLEY       FAIR      63  61  94 NW7       29.85R
CLOQUET        CLOUDY    57  55  94 CALM      29.85S
MCGREGOR       CLEAR     59  57  94 NW5       29.88S
$$
MNZ071>073-080-081-089-090-097-098-220700-
   Southwest Minnesota

CITY           SKY/WX    TMP DP  RH WIND       PRES   REMARKS
MONTEVIDEO     CLEAR     61  61 100 N13       29.98R
GRANITE FALLS  CLEAR     62  60  91 W8        29.99R
CANBY          CLEAR     62  56  81 CALM      30.02R
MARSHALL       PTCLDY    63  59  87 NW10      30.00R
REDWOOD FALLS  CLEAR     64  59  83 NW12      29.95R
OLIVIA         CLEAR     61  57  88 NW8       29.95R
PIPESTONE      CLEAR     64  59  82 N13       30.02R
WINDOM         CLEAR     64  59  82 NW14      29.96R
WORTHINGTON    CLEAR     64  61  90 NW14      29.98R
JACKSON        CLEAR     63  61  94 CALM      29.97R
TRACY          PTCLDY    64  61  90 NW12      29.99R
SLAYTON        CLEAR     62  57  84 W9        30.00S
$$
MNZ065>067-074>077-082>085-091>093-220700-
   South Central Minnesota

CITY           SKY/WX    TMP DP  RH WIND       PRES   REMARKS
MANKATO        PTCLDY    64  63  96 W8        29.92R
NEW ULM        CLOUDY    64  61  88 NW13      29.92R
ST JAMES         N/A     64  63  94 W7        29.94R
FAIRMONT       PTCLDY    64  62  93 W8        29.95R
GLENCOE        CLOUDY    65  64  94 NW10      29.90S
FARIBAULT      CLOUDY    66  64  94 W8        29.91R
OWATONNA       CLOUDY    64  63  94 SW6       29.91S
WASECA         CLOUDY    63  61  94 W6        29.93R
ALBERT LEA     MOCLDY    66  64  94 CALM      29.94R
$$
MNZ078>079-086>088-094>096-220700-
   Southeast Minnesota

CITY           SKY/WX    TMP DP  RH WIND       PRES   REMARKS
ROCHESTER      CLOUDY    64  63  96 SW9       29.92F
6HR MIN TEMP:  63; 6HR MAX TEMP:  65; 6HR PCP: TRACE;

RED WING       MOCLDY    68  63  83 W8        29.85F
STANTON        CLOUDY    67  62  86 W7        29.88S
DODGE CENTER   CLOUDY    63  61  94 W7        29.92R
WINONA         CLOUDY    66  63  88 W8        29.88F
AUSTIN         CLOUDY    63  61  94 SW3       29.93R
PRESTON        CLOUDY    63  61  93 CALM      29.93S
$$
ABBREVIATIONS USED IN REMARKS
   TC - TEMPERATURES IN CELSIUS
  WCI - WIND CHILL INDEX
   HX - HEAT INDEX
  VSB - VISIBILITY
$$



USA.gov is the U.S. government's official web portal to all federal, state and local government web resources and services.